Ypsilanti, MI

5:41 PM EDT on May 22, 2017 (GMT -0400)
Willow Run

Weather History for KYIP - January, 2013

Change the Weather History Date:

Tuesday, January 22, 2013

  Actual Average Record
Temperature  
Mean Temperature 6 °F -  
Max Temperature 12 °F 31 °F 51 °F (2002)
Min Temperature 0 °F 19 °F -10 °F (1970)
Degree Days  
Heating Degree Days 59    
Moisture  
Dew Point -3 °F    
Average Humidity 61    
Maximum Humidity 73    
Minimum Humidity 48    
Precipitation  
Precipitation 0.00 in - - ()
Sea Level Pressure  
Sea Level Pressure 30.25 in    
Wind  
Wind Speed 12 mph (West)    
Max Wind Speed 20 mph    
Max Gust Speed 24 mph    
Visibility 8 miles    
Events Snow    
Averages and records for this station are not official NWS values.
T = Trace of Precipitation, MM = Missing Value Source: NWS Daily Summary

Daily Weather History Graph

Daily Weather History Graph

Search for Another Location

Airport or City:

Trip Planner

Search our weather history database for the weather conditions in past years. The results will help you decide how hot, cold, wet, or windy it might be!

Date:

Astronomy

Jan. 22, 2013 Rise Set
Actual Time 7:56 AM EST 5:36 PM EST
Civil Twilight 7:25 AM EST 6:06 PM EST
Nautical Twilight 6:51 AM EST 6:40 PM EST
Astronomical Twilight 6:18 AM EST 7:13 PM EST
Moon 1:57 PM EST 4:17 AM EST
Length of Visible Light 10h 40m
Length of Day
9h 40m
Waxing Gibbous, 82% of the Moon is Illuminated
Jan 22
Waxing Gibbous
Jan 26
Full
Feb 3
Last Quarter
Feb 10
New
Feb 17
First Quarter

Hourly Weather History & Observations

Time (EST) Temp. Windchill Dew Point Humidity Pressure Visibility Wind Dir Wind Speed Gust Speed Precip Events Conditions
12:53 AM 5.0 °F -9.1 °F -4.0 °F 66% 30.15 in 8.0 mi WNW 9.2 mph - N/A   Mostly Cloudy
1:53 AM 3.9 °F -10.4 °F -5.1 °F 66% 30.16 in 10.0 mi NW 9.2 mph - N/A   Clear
2:11 AM 5.0 °F -12.3 °F -4.0 °F 66% 30.12 in 4.0 mi WNW 13.8 mph - 0.00 in Snow Light Snow
2:53 AM 5.0 °F -15.2 °F -8.0 °F 55% 30.17 in 10.0 mi West 19.6 mph 24.2 mph 0.00 in   Clear
3:53 AM 3.0 °F -13.3 °F -9.9 °F 55% 30.19 in 10.0 mi West 11.5 mph - N/A   Clear
4:53 AM 1.9 °F -16.2 °F -9.9 °F 58% 30.21 in 10.0 mi WNW 13.8 mph - N/A   Clear
5:53 AM 1.0 °F -12.9 °F -9.9 °F 60% 30.23 in 10.0 mi West 8.1 mph - N/A   Clear
6:53 AM -0.0 °F -14.2 °F -11.0 °F 60% 30.25 in 10.0 mi West 8.1 mph - N/A   Clear
7:53 AM -0.9 °F -15.3 °F -9.9 °F 66% 30.27 in 10.0 mi West 8.1 mph - N/A   Partly Cloudy
8:53 AM 1.0 °F -14.0 °F -9.0 °F 63% 30.29 in 10.0 mi WSW 9.2 mph - N/A   Scattered Clouds
9:53 AM 3.0 °F -11.5 °F -8.0 °F 60% 30.31 in 10.0 mi WSW 9.2 mph - N/A   Clear
10:53 AM 7.0 °F -8.3 °F -8.0 °F 51% 30.32 in 10.0 mi West 11.5 mph - N/A   Clear
11:53 AM 9.0 °F -8.5 °F -7.1 °F 48% 30.30 in 10.0 mi West 16.1 mph 19.6 mph N/A   Scattered Clouds
12:53 PM 9.0 °F -8.5 °F -5.1 °F 53% 30.28 in 10.0 mi West 16.1 mph - N/A   Overcast
1:53 PM 9.0 °F -7.3 °F -4.0 °F 56% 30.27 in 6.0 mi WNW 13.8 mph - N/A   Haze
2:12 PM 8.6 °F -6.3 °F -2.2 °F 62% 30.23 in 10.0 mi West 11.5 mph - N/A   Mostly Cloudy
2:27 PM 10.4 °F -6.0 °F -4.0 °F 52% 30.23 in 10.0 mi West 15.0 mph 23.0 mph N/A   Overcast
2:53 PM 10.0 °F -5.9 °F -2.9 °F 56% 30.27 in 9.0 mi West 13.8 mph 20.7 mph 0.00 in   Mostly Cloudy
3:53 PM 12.0 °F -4.5 °F -2.9 °F 51% 30.27 in 10.0 mi WSW 16.1 mph - N/A   Partly Cloudy
4:53 PM 12.0 °F -4.0 °F -2.0 °F 53% 30.27 in 10.0 mi West 15.0 mph - N/A   Overcast
5:14 PM 12.2 °F -3.1 °F 1.4 °F 62% 30.23 in 2.0 mi West 13.8 mph - 0.00 in Snow Light Snow
5:21 PM 10.4 °F -4.8 °F 1.4 °F 67% 30.23 in 1.0 mi West 12.7 mph - 0.00 in Snow Light Snow
5:29 PM 10.4 °F -2.4 °F 1.4 °F 67% 30.23 in 3.0 mi West 9.2 mph - 0.00 in Snow Light Snow
5:50 PM 10.4 °F -4.8 °F -0.4 °F 62% 30.24 in 8.0 mi West 12.7 mph - 0.00 in   Overcast
5:53 PM 10.9 °F -4.1 °F -0.0 °F 61% 30.28 in 10.0 mi West 12.7 mph - 0.00 in   Overcast
6:53 PM 10.9 °F -1.8 °F -0.9 °F 59% 30.30 in 10.0 mi WNW 9.2 mph - N/A   Overcast
7:48 PM 10.4 °F -1.5 °F 1.4 °F 67% 30.26 in 4.0 mi West 8.1 mph - 0.00 in Snow Light Snow
7:53 PM 10.0 °F -1.9 °F 1.0 °F 67% 30.30 in 5.0 mi West 8.1 mph - 0.00 in Snow Light Snow
8:02 PM 10.4 °F -1.5 °F 1.4 °F 67% 30.25 in 9.0 mi West 8.1 mph - 0.00 in Snow Light Snow
8:18 PM 10.4 °F -3.3 °F 3.2 °F 73% 30.25 in 1.8 mi West 10.4 mph - 0.00 in Snow Light Snow
8:46 PM 10.4 °F -3.3 °F 1.4 °F 67% 30.25 in 5.0 mi West 10.4 mph - 0.00 in Snow Light Snow
8:53 PM 10.0 °F -4.5 °F -0.0 °F 64% 30.30 in 5.0 mi WSW 11.5 mph - 0.00 in Snow Light Snow
9:14 PM 10.4 °F -5.4 °F -0.4 °F 62% 30.25 in 9.0 mi WSW 13.8 mph - 0.00 in Snow Light Snow
9:53 PM 10.0 °F -2.9 °F 1.0 °F 67% 30.30 in 4.0 mi WSW 9.2 mph - 0.00 in Snow Light Snow
10:53 PM 9.0 °F -5.9 °F 1.0 °F 70% 30.30 in 5.0 mi West 11.5 mph - 0.00 in Snow Light Snow
11:53 PM 9.0 °F -5.9 °F -0.0 °F 67% 30.30 in 9.0 mi West 11.5 mph - 0.00 in Snow Light Snow